Weather History for Samos, Greece

Change the Weather History Date:

Friday, November 16, 2012

  Actual Average Record
Temperature  
Mean Temperature 64 °F -  
Max Temperature 72 °F 61 °F 72 °F (2012)
Min Temperature 56 °F 49 °F 48 °F (2011)
Degree Days  
Heating Degree Days 1    
Growing Degree Days 14 (Base 50)    
Moisture  
Dew Point 55 °F    
Average Humidity 71    
Maximum Humidity 94    
Minimum Humidity 43    
Precipitation  
Precipitation 0.00 in 0.18 in - ()
Sea Level Pressure  
Sea Level Pressure 30.08 in    
Wind  
Wind Speed 1 mph ()    
Max Wind Speed 7 mph    
Max Gust Speed -    
Visibility 5.8 miles    
Events      
Averages and records for this station are not official NWS values.
T = Trace of Precipitation, MM = Missing Value Source: Averaged Metar Reports

Daily Weather History Graph

Daily Weather History Graph

Search for Another Location

Airport:

Trip Planner

Search our weather history database for the weather conditions in past years. The results will help you decide how hot, cold, wet, or windy it might be!

Date:

Astronomy

Nov. 16, 2012 Rise Set
Actual Time 6:53 AM EET 5:00 PM EET
Civil Twilight 6:25 AM EET 5:28 PM EET
Nautical Twilight 5:53 AM EET 6:00 PM EET
Astronomical Twilight 5:22 AM EET 6:31 PM EET
Moon 9:28 AM EET (11/16) 7:38 PM EET (11/16)
Length of Visible Light 11h 02m
Length of Day
10h 06m
Waxing Crescent, 9% of the Moon is Illuminated
Nov 16
Waxing Crescent
Nov 20
First Quarter
Nov 28
Full
Dec 6
Last Quarter
Dec 13
New

Hourly Weather History & Observations

Time (EET) Temp. Dew Point Humidity Pressure Visibility Wind Dir Wind Speed Gust Speed Precip Events Conditions
4:50 AM 57.2 °F 55.4 °F 94% 30.06 in 3.1 mi Calm Calm - N/A   Partly Cloudy
5:20 AM 57.2 °F 55.4 °F 94% 30.06 in 3.7 mi Calm Calm - N/A   Partly Cloudy
5:50 AM 57.2 °F 55.4 °F 94% 30.06 in 3.7 mi Calm Calm - N/A   Partly Cloudy
6:20 AM 57.2 °F 55.4 °F 94% 30.06 in 4.3 mi Calm Calm - N/A   Partly Cloudy
6:50 AM 57.2 °F 55.4 °F 94% 30.09 in 4.3 mi Calm Calm - N/A   Scattered Clouds
7:20 AM 57.2 °F 55.4 °F 94% 30.09 in 5.0 mi Calm Calm - N/A   Scattered Clouds
7:50 AM 57.2 °F 53.6 °F 88% 30.09 in 6.2 mi Calm Calm - N/A   Scattered Clouds
8:00 AM 57 °F 54 °F 87% 30.11 in 6 mi Calm Calm - -   Scattered Clouds
8:20 AM 57.2 °F 53.6 °F 88% 30.09 in 6.2 mi NNE 4.6 mph - N/A   Scattered Clouds
8:50 AM 59.0 °F 53.6 °F 82% 30.09 in 6.2 mi Calm Calm - N/A   Scattered Clouds
9:20 AM 60.8 °F 53.6 °F 77% 30.09 in 6.2 mi Variable 3.5 mph - N/A   Scattered Clouds
9:50 AM 66.2 °F 57.2 °F 73% 30.12 in 6.2 mi Variable 4.6 mph - N/A   Scattered Clouds
10:20 AM 69.8 °F 55.4 °F 60% 30.12 in 6.2 mi Variable 4.6 mph - N/A   Scattered Clouds
10:50 AM 69.8 °F 53.6 °F 56% 30.12 in 6.2 mi Variable 4.6 mph - N/A   Scattered Clouds
11:50 AM 69.8 °F 53.6 °F 56% 30.09 in 6.2 mi South 6.9 mph - N/A   Scattered Clouds
12:20 PM 71.6 °F 51.8 °F 50% 30.09 in 6.2 mi South 6.9 mph - N/A   Scattered Clouds
12:50 PM 71.6 °F 55.4 °F 57% 30.09 in 6.2 mi Calm Calm - N/A   Mostly Cloudy
1:20 PM 71.6 °F 55.4 °F 57% 30.09 in 6.2 mi Calm Calm - N/A   Mostly Cloudy
1:50 PM 71.6 °F 53.6 °F 53% 30.06 in 6.2 mi Calm Calm - N/A   Mostly Cloudy
2:00 PM 72 °F 54 °F 43% 30.08 in 6 mi Calm Calm - -   Scattered Clouds
2:20 PM 71.6 °F 53.6 °F 53% 30.06 in 6.2 mi Calm Calm - N/A   Mostly Cloudy
2:50 PM 71.6 °F 53.6 °F 53% 30.06 in 6.2 mi Calm Calm - N/A   Mostly Cloudy
3:20 PM 71.6 °F 53.6 °F 53% 30.06 in 6.2 mi Calm Calm - N/A   Mostly Cloudy
3:50 PM 69.8 °F 53.6 °F 56% 30.06 in 6.2 mi Calm Calm - N/A   Mostly Cloudy
4:20 PM 68.0 °F 53.6 °F 60% 30.06 in 6.2 mi Calm Calm - N/A   Mostly Cloudy
4:50 PM 66.2 °F 57.2 °F 73% 30.06 in 6.2 mi Calm Calm - N/A   Mostly Cloudy
5:20 PM 66.2 °F 57.2 °F 73% 30.06 in 6.2 mi Calm Calm - N/A   Mostly Cloudy
5:50 PM 66.2 °F 57.2 °F 73% 30.06 in 6.2 mi Calm Calm - N/A   Mostly Cloudy
6:20 PM 64.4 °F 57.2 °F 77% 30.06 in 6.2 mi Calm Calm - N/A   Mostly Cloudy
6:50 PM 64.4 °F 55.4 °F 73% 30.06 in 6.2 mi Calm Calm - N/A   Mostly Cloudy
7:20 PM 64.4 °F 57.2 °F 77% 30.06 in 6.2 mi Calm Calm - N/A   Mostly Cloudy
7:50 PM 62.6 °F 55.4 °F 77% 30.06 in 6.2 mi Calm Calm - N/A   Mostly Cloudy
8:00 PM 63 °F 56 °F 70% 30.07 in 6 mi Calm Calm - -   Scattered Clouds